Wind_Speed
35 41 50 50 55 54 49 38 43 40 34 30 39 51 44 44 46 50 51 49 48 48 46 47 46 42 43 45 43 41 40 38 39 38 37 37 35 34 33 33 33 33 33 31
43 50 55 54 52 53 51 45 47 40 40 34 42 53 45 41 40 38 40 45 47 45 40 43 46 46 45 44 45 45 41 39 38 38 37 38 35 35 33 34 36 37 34 32
43 56 40 54 58 49 52 49 50 45 30 33 40 53 50 50 49 50 49 50 47 44 41 34 40 44 45 47 46 45 43 40 39 38 37 38 38 39 39 39 38 35 32 32
27 54 57 42 40 56 54 60 53 46 35 38 32 22 42 47 52 50 50 49 50 48 44 44 42 41 45 43 41 40 40 38 37 37 36 37 36 37 35 33 32 32 33 35
36 34 53 53 55 46 57 56 54 50 40 37 27 23 35 38 39 43 50 50 50 44 43 44 44 42 41 39 40 37 37 37 36 35 36 36 37 37 35 35 36 37 37 37
36 33 38 36 38 39 46 46 39 40 40 26 40 35 46 34 39 46 50 49 48 47 40 43 44 41 40 41 41 41 40 39 37 37 38 37 38 37 37 38 39 38 37 36
24 25 41 50 34 30 28 34 10 13 15 16 38 30 43 10 27 44 50 50 42 40 37 41 41 43 44 48 50 49 47 45 46 45 44 42 40 40 40 39 39 39 38 36
8 10 9 29 50 34 24 29 14 10 4 12 22 12 31 41 37 27 16 22 28 29 30 33 40 44 47 50 50 52 56 55 51 49 47 45 43 43 42 41 41 40 38 38
9 12 28 16 20 38 34 30 23 10 2 4 8 16 35 38 29 28 33 36 35 34 35 35 36 37 38 45 49 47 50 53 51 48 45 44 44 44 44 43 43 42 41 41
18 17 12 4 12 16 25 23 13 24 5 9 3 5 15 27 35 35 33 30 29 32 32 32 34 37 42 43 42 44 43 47 44 43 44 44 42 42 44 44 43 42 41 40
20 9 18 13 16 24 33 22 17 8 6 2 1 6 21 26 26 23 24 24 23 31 36 40 34 38 42 42 39 42 44 46 42 43 46 45 43 41 42 44 42 42 40 39
16 9 13 24 15 21 24 27 30 7 4 7 9 15 20 24 22 22 31 30 33 30 29 31 33 32 35 39 36 37 46 46 42 44 44 43 42 43 42 41 41 40 38 36
15 6 9 9 4 7 22 21 17 30 9 18 5 9 9 14 16 17 21 24 23 18 13 12 16 18 24 28 32 39 40 40 41 42 42 41 41 41 41 39 37 35 35 34
18 16 10 10 18 18 2 4 5 26 15 12 17 28 16 16 20 25 24 20 17 17 17 21 17 13 13 18 23 28 32 34 37 38 38 38 39 37 36 34 34 33 31 29
16 13 17 21 17 8 8 7 6 4 8 8 8 11 15 19 18 14 18 22 25 24 19 19 23 14 10 11 17 22 26 30 33 35 34 33 34 31 29 28 31 32 31 32
19 13 16 23 11 7 8 11 6 3 6 7 11 11 12 15 18 20 20 16 16 19 19 17 18 20 19 19 19 24 26 28 29 30 31 32 31 29 29 29 27 29 31 33
18 8 14 6 14 4 4 18 16 17 14 9 12 13 12 8 10 11 12 13 19 16 14 13 10 12 19 26 26 25 26 26 27 29 27 27 31 31 30 27 27 30 32 32
18 14 8 9 11 4 3 6 6 15 16 15 13 13 14 10 10 11 8 7 9 12 16 15 14 14 18 23 25 26 28 30 29 29 29 30 27 25 22 23 28 28 28 28
11 9 5 4 4 8 6 12 9 4 14 16 15 15 16 12 8 7 10 14 14 11 11 14 17 16 19 21 24 24 25 25 28 28 28 28 23 17 21 24 25 26 25 25
3 6 7 4 2 1 14 9 4 1 10 16 16 17 19 16 10 10 9 8 9 14 13 13 16 17 20 20 20 23 22 25 27 28 24 21 22 24 22 23 23 23 24 24
4 3 5 9 2 3 11 9 6 3 7 15 16 17 17 19 18 17 14 9 8 7 9 14 16 19 20 20 23 26 26 24 23 21 20 19 24 29 30 29 26 23 22 22
13 5 6 4 4 3 12 13 7 7 8 11 13 14 15 15 15 15 14 11 10 8 7 6 13 16 18 20 22 22 22 23 23 24 24 25 22 21 20 19 19 18 19 21
9 12 6 6 6 6 11 12 10 10 11 11 11 11 13 14 14 14 13 12 10 8 7 4 6 13 16 18 20 21 22 22 23 25 26 20 15 14 16 20 20 19 21 23
7 8 5 3 6 5 6 10 11 11 12 13 13 13 13 14 14 13 13 12 10 9 7 5 4 8 12 15 18 20 21 22 22 19 11 10 12 13 14 15 16 17 18 20
10 8 5 5 9 9 9 11 11 11 13 14 13 11 11 13 14 13 12 12 11 9 8 7 7 8 11 13 15 17 18 17 14 14 16 16 13 12 14 14 14 15 16 16
9 10 9 8 11 11 11 11 11 11 12 11 10 13 16 18 17 15 13 12 11 11 10 8 8 8 10 13 14 13 12 11 11 12 12 11 12 14 14 14 14 13 13 13
Wind_Direction
227 232 228 230 228 233 235 241 245 247 237 239 245 256 256 256 255 251 247 244 245 245 242 243 244 245 245 243 242 242 244 244 248 247 247 248 250 252 251 249 251 254 252 249
246 246 232 230 234 234 235 238 243 253 244 235 243 250 250 249 249 246 250 248 249 247 240 240 240 240 241 239 240 239 241 242 247 247 248 249 251 251 247 246 248 248 248 250
241 231 246 234 232 234 238 241 241 240 243 248 246 255 252 249 250 248 249 250 251 248 249 238 233 234 237 237 237 237 236 241 244 246 247 247 246 245 243 247 251 251 252 254
275 238 244 236 234 230 236 237 240 241 239 243 239 261 255 257 257 252 248 248 249 249 249 248 236 233 233 236 238 238 235 236 239 242 246 247 248 249 252 254 251 248 248 253
270 266 239 248 241 232 231 238 239 239 238 241 230 246 255 254 250 252 248 245 248 249 246 244 247 238 237 235 232 233 233 237 242 247 248 249 248 248 248 243 240 244 249 257
288 256 233 241 244 244 243 228 229 232 229 235 238 228 258 242 249 257 256 252 251 251 252 243 244 242 239 241 240 235 239 239 244 251 249 249 250 249 246 242 244 247 254 259
306 269 233 236 249 256 220 216 216 220 216 236 234 224 237 245 253 260 258 258 258 260 253 248 244 243 244 241 242 245 245 244 252 253 251 248 250 249 246 243 245 248 254 256
299 309 258 245 240 242 248 229 208 210 192 226 226 210 232 254 258 253 252 243 254 254 246 240 240 243 240 239 240 243 247 249 253 253 251 250 250 248 245 244 246 249 253 253
314 299 311 264 248 229 230 236 242 258 226 71 195 226 242 247 240 246 255 263 262 259 257 255 257 248 237 238 239 240 242 244 248 250 252 252 252 249 248 247 248 249 250 250
330 295 331 262 223 230 215 236 219 230 215 217 241 213 208 238 246 250 244 250 260 258 252 253 259 258 246 239 234 236 237 240 245 246 247 249 251 251 249 247 249 251 249 247
327 300 308 305 211 200 201 215 207 261 239 86 45 266 231 243 257 244 252 267 275 266 269 262 267 256 255 246 242 236 237 237 240 240 241 244 247 248 248 248 246 247 244 243
319 298 283 305 289 221 212 220 215 202 214 207 221 259 257 277 265 260 261 262 265 278 276 259 257 261 251 243 240 236 234 241 240 236 236 241 245 245 243 244 245 242 240 240
334 278 312 345 38 180 204 218 233 221 237 222 158 263 288 264 266 272 270 275 262 262 264 284 255 255 248 242 237 239 238 233 232 233 235 236 239 243 241 235 234 236 238 240
325 316 307 303 316 312 310 14 244 232 221 233 231 254 247 260 274 292 280 278 285 274 287 278 266 253 257 243 234 231 230 228 227 228 234 239 238 230 227 227 227 229 235 245
324 310 332 328 324 307 333 326 305 310 213 222 239 248 269 275 276 286 283 272 268 269 267 277 264 222 223 277 252 235 230 231 232 234 234 233 226 220 219 225 232 239 245 247
319 313 335 328 351 10 53 29 36 344 336 293 289 282 281 297 296 290 272 276 251 239 236 233 249 248 237 222 239 239 229 230 231 224 218 217 217 222 225 227 232 242 251 256
303 333 327 281 343 337 35 47 63 59 41 27 20 342 309 299 312 293 259 254 252 268 234 227 216 231 241 237 238 240 216 213 213 214 210 209 210 214 225 237 248 252 256 257
257 275 273 283 327 49 109 55 50 59 46 44 30 9 354 311 298 276 280 266 266 251 251 246 225 221 229 230 222 221 209 200 199 202 203 212 215 225 234 247 251 253 255 256
253 230 269 306 28 128 33 4 23 71 35 23 23 17 7 5 350 322 287 276 265 274 267 251 237 214 216 209 207 213 215 215 208 205 211 218 222 231 240 248 254 255 253 253
179 214 226 316 62 67 359 2 345 227 40 9 12 12 7 12 27 350 333 320 291 255 254 250 238 220 209 206 203 199 202 205 207 212 216 220 222 226 232 238 248 252 255 256
69 116 239 260 117 55 14 19 59 47 334 2 8 1 1 9 8 1 355 344 335 333 264 243 237 221 207 203 202 205 211 212 215 224 237 243 250 251 246 240 240 247 254 255
33 28 21 32 71 15 31 37 58 31 2 1 356 352 355 354 355 359 359 352 345 333 325 262 232 226 219 215 216 218 221 223 227 234 240 247 238 235 237 240 242 246 251 253
30 62 44 53 104 86 25 27 16 357 350 343 339 338 335 339 342 342 350 354 347 343 340 310 242 229 228 227 228 232 235 239 247 248 242 222 216 222 230 237 239 244 249 250
34 58 85 33 45 332 339 356 348 345 343 336 330 334 337 335 331 331 331 333 339 337 332 317 272 235 225 226 229 235 239 237 231 221 208 218 225 228 231 235 242 249 256 258
39 41 41 37 2 350 334 337 325 324 330 337 337 340 340 342 339 329 319 317 317 317 313 302 272 253 247 241 241 242 238 232 222 211 217 224 229 239 248 250 255 255 256 257
2 4 10 355 356 349 335 333 330 327 324 317 311 316 321 323 325 323 321 311 305 303 301 295 274 255 240 230 228 221 216 216 219 222 225 228 230 236 244 251 255 257 261 265
Height
2954 2956 2946 2948 2952 2954 2962 2965 2965 2967 2975 2978 2974 2967 2979 2985 2987 2990 2994 2998 3001 3004 3012 3014 3018 3022 3025 3029 3032 3036 3039 3043 3045 3047 3050 3052 3054 3057 3059 3061 3063 3065 3065 3066
2943 2934 2936 2941 2947 2949 2950 2954 2955 2961 2967 2969 2967 2958 2970 2974 2975 2980 2983 2987 2990 2995 2999 3004 3007 3010 3013 3018 3022 3025 3030 3033 3036 3039 3042 3042 3047 3048 3051 3053 3054 3055 3057 3060
2928 2916 2929 2934 2937 2941 2941 2945 2948 2952 2959 2959 2962 2950 2958 2961 2966 2970 2972 2976 2981 2985 2990 2994 2995 2999 3003 3006 3010 3015 3020 3024 3027 3030 3032 3035 3037 3039 3041 3044 3047 3049 3051 3053
2912 2914 2918 2916 2920 2930 2927 2933 2939 2947 2953 2948 2956 2940 2948 2950 2953 2959 2962 2965 2969 2974 2979 2984 2987 2988 2991 2997 3004 3006 3010 3015 3018 3020 3023 3026 3030 3032 3037 3040 3041 3042 3043 3044
2903 2903 2906 2908 2905 2916 2918 2928 2931 2939 2942 2945 2944 2942 2932 2943 2944 2945 2950 2954 2957 2964 2969 2973 2977 2982 2985 2989 2992 2998 3001 3005 3008 3012 3014 3018 3020 3024 3028 3030 3031 3033 3035 3036
2891 2894 2896 2899 2903 2909 2915 2923 2927 2929 2931 2925 2931 2936 2914 2931 2933 2936 2941 2947 2948 2953 2958 2962 2967 2973 2976 2979 2983 2987 2991 2995 2998 3002 3005 3008 3012 3015 3017 3020 3022 3025 3027 3028
2886 2880 2882 2887 2894 2900 2905 2909 2914 2914 2911 2906 2915 2924 2917 2918 2925 2926 2931 2935 2941 2943 2948 2951 2955 2960 2964 2968 2972 2975 2980 2984 2988 2992 2995 2998 3002 3006 3008 3011 3014 3016 3018 3020
2884 2877 2875 2878 2883 2892 2893 2900 2899 2898 2900 2903 2908 2906 2903 2911 2919 2922 2922 2926 2931 2933 2936 2939 2942 2946 2950 2954 2958 2962 2967 2971 2977 2981 2985 2990 2993 2995 2998 3001 3004 3006 3009 3011
2887 2878 2873 2871 2875 2884 2889 2892 2894 2897 2897 2901 2897 2898 2902 2904 2909 2913 2917 2921 2921 2924 2926 2929 2932 2933 2937 2942 2945 2950 2953 2958 2964 2970 2976 2979 2983 2986 2989 2992 2994 2997 2999 3001
2890 2878 2869 2869 2872 2877 2883 2886 2894 2894 2887 2890 2893 2892 2893 2895 2900 2905 2908 2911 2912 2913 2915 2918 2920 2922 2925 2928 2932 2938 2943 2947 2953 2959 2965 2968 2972 2976 2979 2981 2984 2987 2989 2992
2888 2884 2873 2870 2867 2869 2875 2878 2884 2886 2887 2889 2892 2891 2891 2893 2898 2900 2903 2904 2904 2905 2906 2907 2908 2910 2913 2917 2920 2925 2930 2935 2940 2947 2952 2957 2961 2964 2968 2972 2974 2978 2980 2983
2886 2881 2873 2867 2865 2866 2871 2872 2876 2883 2886 2886 2887 2884 2887 2888 2890 2892 2895 2896 2897 2899 2897 2896 2898 2899 2900 2904 2909 2912 2918 2924 2929 2934 2940 2946 2951 2954 2957 2961 2964 2967 2970 2974
2885 2880 2875 2866 2867 2865 2868 2871 2874 2878 2878 2877 2884 2879 2880 2881 2884 2888 2890 2891 2891 2891 2890 2890 2891 2891 2892 2895 2899 2904 2908 2913 2918 2924 2930 2935 2940 2944 2948 2951 2955 2959 2963 2966
2887 2881 2877 2875 2871 2868 2867 2868 2870 2872 2874 2874 2876 2872 2878 2881 2881 2884 2885 2885 2885 2884 2884 2885 2887 2887 2887 2889 2892 2896 2900 2905 2911 2915 2921 2926 2931 2934 2939 2943 2948 2951 2954 2957
2885 2881 2877 2872 2869 2866 2866 2867 2868 2868 2868 2874 2874 2874 2875 2876 2875 2876 2876 2876 2879 2880 2879 2881 2883 2881 2883 2886 2889 2892 2895 2900 2905 2909 2912 2918 2924 2927 2932 2937 2940 2943 2947 2950
2882 2880 2874 2868 2867 2866 2867 2867 2866 2866 2868 2869 2869 2870 2870 2870 2868 2869 2870 2872 2873 2872 2873 2876 2875 2878 2879 2880 2884 2886 2889 2893 2898 2902 2906 2911 2916 2922 2926 2931 2934 2936 2939 2941
2880 2878 2877 2872 2870 2868 2870 2872 2870 2871 2869 2869 2868 2869 2866 2866 2865 2865 2866 2866 2867 2868 2867 2869 2870 2872 2874 2877 2879 2881 2882 2887 2891 2895 2900 2907 2912 2916 2920 2924 2927 2929 2931 2932
2876 2880 2881 2873 2869 2875 2876 2875 2874 2874 2873 2873 2872 2870 2867 2865 2864 2864 2864 2864 2863 2862 2863 2863 2865 2868 2870 2872 2874 2876 2878 2881 2886 2891 2897 2901 2906 2910 2913 2917 2919 2920 2922 2924
2873 2876 2876 2873 2872 2877 2876 2876 2875 2874 2876 2873 2872 2870 2867 2865 2863 2863 2862 2861 2860 2859 2859 2859 2860 2861 2863 2867 2871 2874 2878 2881 2884 2890 2894 2897 2901 2904 2908 2910 2912 2914 2915 2916
2872 2874 2877 2876 2875 2879 2877 2875 2875 2875 2876 2875 2872 2870 2867 2865 2864 2863 2860 2859 2857 2857 2856 2857 2858 2858 2861 2864 2866 2870 2875 2878 2882 2887 2889 2891 2894 2897 2900 2903 2904 2906 2907 2908
2873 2873 2875 2875 2877 2880 2878 2877 2875 2877 2882 2875 2873 2871 2868 2865 2865 2862 2859 2858 2857 2855 2854 2854 2855 2857 2859 2862 2866 2869 2872 2875 2879 2883 2884 2886 2888 2891 2893 2894 2896 2898 2900 2901
2876 2877 2877 2877 2878 2883 2878 2878 2879 2883 2879 2877 2875 2873 2870 2868 2866 2863 2860 2858 2856 2855 2853 2853 2854 2856 2858 2862 2865 2868 2871 2873 2875 2876 2878 2880 2882 2886 2887 2888 2890 2891 2894 2896
2882 2882 2881 2882 2884 2883 2882 2882 2881 2880 2879 2878 2876 2874 2871 2869 2866 2863 2861 2858 2856 2855 2854 2853 2853 2854 2856 2859 2862 2864 2866 2868 2870 2872 2873 2875 2878 2880 2880 2883 2885 2887 2889 2890
2885 2884 2884 2885 2885 2884 2883 2882 2881 2879 2877 2875 2873 2871 2870 2868 2866 2864 2862 2859 2857 2855 2855 2854 2854 2854 2855 2857 2858 2860 2862 2864 2865 2866 2867 2870 2872 2874 2877 2879 2880 2880 2881 2881
2888 2887 2886 2886 2885 2884 2883 2882 2880 2878 2876 2874 2872 2870 2869 2867 2865 2863 2861 2859 2857 2855 2854 2854 2853 2853 2854 2854 2855 2856 2857 2858 2858 2860 2863 2865 2866 2868 2869 2871 2869 2872 2873 2874
2888 2887 2886 2885 2884 2883 2882 2880 2878 2876 2875 2873 2872 2869 2867 2865 2863 2862 2859 2858 2856 2854 2853 2852 2852 2852 2852 2852 2853 2854 2855 2855 2857 2859 2859 2861 2862 2863 2864 2864 2867 2868 2868 2869